Home > Weather > Bielefeld > Past weeks

Flag for Germany Past Weather in Bielefeld, North Rhine-Westphalia, Germany — Yesterday and Last 2 Weeks

Now
68 °F

Clear.


Feels Like: 68 °F
Forecast: 60 / 74 °F
Wind: 6 mph from Southwest

Location: Paderborn / Lippstadt

Current Time: Jul 25, 2016 at 8:18:37 AM

Latest Report: Jul 25, 2016 at 7:50 AM


Visibility: 4 mi

Pressure: 30.09 "Hg

Humidity: 83%

Dew Point: 63 °F

Location of BielefeldLocation

Past Weather in Bielefeld — Graph

°F

Bielefeld Temperature Yesterday

Maximum temperature yesterday: 81 °F (at 3:50 PM)
Minimum temperature yesterday: 63 °F (at 5:20 AM)
Average temperature yesterday: 71 °F

High & Low Weather Summary for the Past Weeks

 TemperatureHumidityPressure
High91 °F (Jul 20, 5:20 PM)100% (Jul 14, 5:20 AM)30.27 "Hg (Jul 14, 5:20 AM)
Low50 °F (Jul 14, 6:50 AM)23% (Jul 20, 5:20 PM)29.77 "Hg (Jul 10, 9:50 PM)
Average68 °F68%30.05 "Hg
* Reported Jul 10 6:20 AM — Jul 25 6:50 AM, Bielefeld, Weather by CustomWeather, © 2016

Note: Actual official high and low records may vary slightly from our data, if they occured in-between our weather recording intervals... More about our weather records

Advertising

Bielefeld Weather History for the Previous 24 Hours

Scroll right to see more
 ConditionsComfort  
Time TempWeatherWind HumidityBarometerVisibility
6:50 AM
Mon, Jul 25
66 °FClear.5 mph88%30.07 "Hg5 mi
6:20 AM64 °FClear.5 mph88%30.07 "Hg10 mi
5:50 AM66 °FPassing clouds.3 mph83%30.07 "HgN/A
5:20 AM64 °FClear.5 mph88%30.07 "Hg10 mi
4:50 AM66 °FClear.2 mph83%30.07 "Hg10 mi
4:20 AM66 °FClear.2 mph83%30.07 "Hg10 mi
3:50 AM66 °FClear.2 mph83%30.09 "Hg10 mi
3:20 AM66 °FClear.3 mph83%30.07 "Hg10 mi
2:50 AM66 °FClear.1 mph83%30.09 "Hg10 mi
2:20 AM68 °FClear.2 mph78%30.09 "Hg10 mi
1:50 AM66 °FClear.3 mph83%30.09 "Hg10 mi
1:20 AM68 °FClear.2 mph78%30.09 "Hg10 mi
12:50 AM66 °FClear.1 mph83%30.09 "Hg10 mi
12:20 AM66 °FClear.2 mph83%30.09 "Hg10 mi
11:50 PM
Sun, Jul 24
68 °FClear.1 mph78%30.09 "Hg10 mi
11:20 PM68 °FClear.2 mph78%30.09 "Hg10 mi
10:50 PM68 °FClear.3 mph78%30.09 "Hg10 mi
10:20 PM68 °FSunny.1 mph78%30.09 "Hg10 mi
9:50 PM72 °FSunny.2 mph65%30.09 "Hg10 mi
9:20 PM73 °FSunny.2 mph61%30.07 "Hg10 mi
8:50 PM73 °FSunny.3 mph57%30.07 "Hg10 mi
8:20 PM77 °FSunny.2 mph57%30.07 "Hg10 mi
7:50 PM77 °FSunny.2 mph61%30.07 "Hg10 mi
7:20 PM77 °FSunny.2 mph57%30.07 "Hg10 mi
6:50 PM79 °FSunny.2 mph48%30.07 "Hg10 mi
6:20 PM81 °FSunny.2 mph39%30.07 "Hg10 mi
5:50 PM81 °FSunny.1 mph32%30.07 "Hg10 mi
5:20 PM81 °FSunny.2 mph34%30.07 "Hg10 mi
4:50 PM81 °FSunny.3 mph32%30.09 "Hg10 mi
4:20 PM81 °FPassing clouds.5 mph30%30.09 "HgN/A
3:50 PM81 °FPassing clouds.5 mph32%30.09 "HgN/A
3:20 PM79 °FPassing clouds.5 mph37%30.09 "HgN/A
2:50 PM79 °FPassing clouds.7 mph39%30.09 "HgN/A
2:20 PM79 °FPassing clouds.6 mph45%30.09 "HgN/A
1:50 PM79 °FSunny.7 mph48%30.09 "Hg10 mi
1:20 PM79 °FSunny.3 mph45%30.09 "Hg10 mi
12:50 PM77 °FSunny.2 mph44%30.09 "Hg10 mi
12:20 PM79 °FSunny.5 mph39%30.09 "Hg10 mi
11:50 AM75 °FSunny.3 mph44%30.09 "Hg10 mi
11:20 AM75 °FSunny.2 mph44%30.09 "Hg10 mi
10:50 AM73 °FSunny.2 mph41%30.12 "Hg10 mi
10:20 AM72 °FSunny.1 mph50%30.12 "Hg10 mi
9:50 AM70 °FSunny.2 mph69%30.12 "Hg10 mi
9:20 AM68 °FSunny.2 mph73%30.12 "Hg10 mi
8:50 AM66 °FSunny.2 mph78%30.12 "Hg10 mi
8:20 AM66 °FSunny.2 mph83%30.09 "Hg10 mi
Weather by CustomWeather, © 2016

See weather overviewHow to use our weather pages